FW1409 Westport CT US current weather conditions

sailwx.info

Wind from 210 at 5 knots gusting 16

Air temperature 23.3° C
Dewpoint 21.2° C

Last reported at 2020-Aug-04 20:46 UTC.
Time now 2020-Aug-06 10:08 UTC

Location: N 41°10' W 073°20'.
View on Google Maps.

See reports from other nearby stations

  
Tides and Currents Weather Stations Pressure Air Temp Water Temp Dewpoint Dewpoint Depression Visibility Wind Speed Wind Dir Waves Ship Positions
date/time (UTC)wind fromknots sea level pressurealtimeterstation pressurevisibilityair tempwater tempwave heightnotes
2020-Aug-04 20:46 210 5 gusting 16 23.3
2020-Aug-04 20:31 212 6 gusting 16 22.2
2020-Aug-04 20:15 240 1 gusting 13 22.2
2020-Aug-04 20:00 260 4 gusting 18 22.2
2020-Aug-04 19:45 179 5 gusting 19 21.7
2020-Aug-04 19:31 124 6 gusting 20 21.7
2020-Aug-04 19:16 020 8 gusting 23 21.7
2020-Aug-04 19:00 294 7 gusting 26 22.2
2020-Aug-04 18:45 146 8 gusting 26 22.8
2020-Aug-04 18:30 070 7 gusting 20 23.3
2020-Aug-04 18:15 141 6 gusting 26 23.9
2020-Aug-04 18:00 069 6 gusting 19 23.9
2020-Aug-04 17:45 165 8 gusting 21 23.3
2020-Aug-04 17:30 129 4 gusting 19 23.9
2020-Aug-04 17:15 078 5 gusting 18 23.9
2020-Aug-04 17:00 203 6 gusting 16 24.4
2020-Aug-04 16:45 056 6 gusting 16 24.4
2020-Aug-04 16:30 047 5 gusting 15 24.4
2020-Aug-04 16:16 163 2 gusting 13 24.4
2020-Aug-04 16:01 084 3 gusting 8 24.4
2020-Aug-04 15:46 163 1 gusting 7 24.4
2020-Aug-04 15:32 101 1 gusting 8 25.0
2020-Aug-04 15:17 124 0 gusting 6 25.0
2020-Aug-04 15:01 064 1 gusting 6 25.0
2020-Aug-04 14:46 067 1 gusting 5 25.0
2020-Aug-04 14:31 207 0 gusting 5 25.0
2020-Aug-04 14:17 102 0 gusting 6 24.4
2020-Aug-04 14:00 067 0 gusting 7 24.4
2020-Aug-04 13:46 150 1 gusting 3 24.4
2020-Aug-04 13:30 118 0 gusting 4 24.4
2020-Aug-04 13:16 114 24.4
2020-Aug-04 13:01 174 0 gusting 3 23.9
2020-Aug-04 12:46 162 0 gusting 4 23.9
2020-Aug-04 12:30 303 23.3
2020-Aug-04 12:15 232 22.8
2020-Aug-04 12:01 086 22.2
2020-Aug-04 11:45 015 21.7
2020-Aug-04 11:30 141 21.7
2020-Aug-04 11:15 128 21.7
2020-Aug-04 11:00 084 21.1
2020-Aug-04 10:45 043 21.1
2020-Aug-04 10:30 096 20.6
2020-Aug-04 10:15 153 20.6
2020-Aug-04 10:00 026 20.6